Location: B?dimalle
(17.1788°N, 80.5377°E)
Time: 05:00:51
(UTC+00:00)

Vanguard 1 - Pass Details

Date: 20 February 2026
Orbit: 653 x 3818 km, 34.2° (Epoch: 14 March)

Event Time Altitude Azimuth Distance (km) Brightness Sun altitude
Rises 18:47:21 0° 284° (WNW) 7,875 14.7 -83.5°
Reaches altitude 10° 18:54:21 10° 273° (W) 6,919 14.3 -83.5°
Enters shadow 18:56:21 13° 269° (W) 6,661 14.2 -83.4°
